SCP
1 1 1 1 1 1 1 1 0 0 1 1 0 0 0 0 0 0 0 0 0 0 0 0 0 0 0 0 0 0 0 0 0 0 0 0 0 0 0 0 0 0 0
1 1 1 1 1 1 1 1 1 1 1 0 0 0 0 0 0 0 0 0 0 0 0 0 0 0 0 0 0 0 0 0 0 0 0 0 0 0 0 0 0 0 0
1 1 1 1 1 1 1 1 1 1 1 0 0 0 0 0 0 0 0 0 0 0 0 0 0 0 0 0 0 0 0 0 0 0 0 0 0 0 0 0 0 0 0
1 1 1 1 1 1 1 1 1 1 0 0 0 0 0 0 0 0 0 0 0 0 0 0 0 0 0 0 0 0 0 0 0 0 0 0 0 0 0 0 0 0 0
0 1 1 1 1 1 1 1 1 0 0 0 0 0 0 0 0 0 0 0 0 0 0 0 0 0 0 0 0 0 0 0 0 0 0 0 0 0 0 0 0 0 0
0 0 1 1 1 1 1 1 1 0 0 0 0 0 0 0 0 0 0 0 0 0 0 0 0 0 0 0 0 0 0 0 0 0 0 0 0 0 0 0 0 0 0
0 0 0 0 1 1 1 0 0 0 0 0 0 0 0 0 0 0 0 0 0 0 0 0 0 0 0 0 0 0 0 0 0 0 0 0 0 0 0 0 0 0 0
0 0 0 0 0 0 0 0 0 0 0 0 0 0 0 0 0 0 0 0 0 0 0 0 0 0 0 0 0 0 0 0 0 0 0 0 0 0 0 0 0 0 0
0 0 0 0 0 0 0 0 0 0 0 0 0 0 0 0 0 0 0 0 0 0 0 0 0 0 0 0 0 0 0 0 0 0 0 0 0 0 0 0 0 0 0
0 0 0 0 0 0 0 0 0 0 0 0 0 0 0 0 0 0 0 0 0 0 0 0 0 0 0 0 0 0 0 0 0 0 0 0 0 0 0 0 0 0 0
0 0 0 0 0 0 0 0 0 0 0 0 0 0 0 0 0 0 0 0 0 0 0 0 0 0 0 0 0 0 0 0 0 0 0 0 0 0 0 0 0 0 0
0 0 0 0 0 0 0 0 0 0 0 0 0 0 0 0 0 0 0 0 0 0 0 0 0 0 0 0 0 0 0 0 0 0 0 0 0 0 0 0 0 0 0
0 0 0 0 0 0 0 0 0 0 0 0 0 0 0 0 0 0 0 0 0 0 0 0 0 0 0 0 0 0 0 0 0 0 0 0 0 0 0 0 0 0 0
0 0 0 0 0 0 0 0 0 0 0 0 0 0 0 0 0 0 0 0 0 0 0 0 0 0 0 0 0 0 0 0 0 0 0 0 0 0 0 0 0 0 0
0 0 0 0 0 0 0 0 0 0 0 0 0 0 0 0 0 0 0 0 0 0 0 0 0 0 0 0 0 0 0 0 0 0 0 0 0 0 0 0 0 0 0
0 0 0 0 0 0 0 0 0 0 0 0 0 0 0 0 0 0 0 0 0 0 0 0 0 0 0 0 0 0 0 0 0 0 0 0 0 0 0 0 0 0 0
0 0 0 0 0 0 0 0 0 0 0 0 0 0 0 0 0 0 0 0 0 0 0 0 0 0 0 0 0 0 0 0 0 0 0 0 0 0 0 0 0 0 0
0 0 0 0 0 0 0 0 0 0 0 0 0 0 0 0 0 0 0 0 0 0 0 0 0 0 0 0 0 0 0 0 0 0 0 0 0 0 0 0 0 0 0
0 0 0 0 0 0 0 0 0 0 0 0 0 0 0 0 0 0 0 0 0 0 0 0 0 0 0 0 0 0 0 0 0 0 0 0 0 0 0 0 0 0 0
0 0 0 0 0 0 0 0 0 0 0 0 0 0 0 0 0 0 0 0 0 0 0 0 0 0 0 0 0 0 0 0 0 0 0 0 0 0 0 0 0 0 0
0 0 0 0 0 0 0 0 0 0 0 0 0 0 0 0 0 0 0 0 0 0 0 0 0 0 0 0 0 0 0 0 0 0 0 0 0 0 0 0 0 0 0
0 0 0 0 0 0 0 0 0 0 0 0 0 0 0 0 0 0 0 0 0 0 0 0 0 0 0 0 0 0 0 0 0 0 0 0 0 0 0 0 0 0 0
0 0 0 0 0 0 0 0 0 0 0 0 0 0 0 0 0 0 0 0 0 0 0 0 0 0 0 0 0 0 0 0 0 0 0 0 0 0 0 0 0 0 0
0 0 0 0 0 0 0 0 0 0 0 0 0 0 0 0 0 0 0 0 0 0 0 0 0 0 0 0 0 0 0 0 0 0 0 0 0 0 0 0 0 0 0
0 0 0 0 0 0 0 0 0 0 0 0 0 0 0 0 0 0 0 0 0 0 0 0 0 0 0 0 0 0 0 0 0 0 0 0 0 0 0 0 0 0 0
0 0 0 0 0 0 0 0 0 0 0 0 0 0 0 0 0 0 0 0 0 0 0 0 0 0 0 0 0 0 0 0 0 0 0 0 0 0 0 0 0 0 0
Wind_Speed
6 6 7 8 9 9 10 10 9 8 7 6 6 6 5 4 4 5 7 7 6 7 6 4 4 4 4 4 5 3 3 2 2 2 2 2 1 1 2 2 3 4 5
6 7 8 9 10 10 10 9 10 10 9 7 6 4 4 4 4 4 5 7 8 8 7 6 5 5 4 4 4 3 3 2 2 3 2 1 2 1 1 2 3 4 3
8 8 8 8 8 9 10 10 10 10 10 8 5 4 4 3 4 5 5 6 8 8 6 7 6 6 5 5 5 5 5 3 2 1 3 3 3 2 1 1 2 3 3
6 7 8 8 8 8 8 7 8 9 10 10 9 9 8 7 6 5 5 5 7 7 7 7 7 6 5 5 5 5 3 4 3 1 1 2 3 2 1 1 1 2 4
5 7 8 8 6 6 7 7 7 8 8 9 10 9 7 5 4 5 6 6 6 6 7 7 7 6 5 6 6 5 4 3 4 3 3 2 1 1 2 1 2 1 2
4 5 5 5 5 6 6 6 7 7 7 8 8 9 8 7 7 7 7 6 4 4 6 7 6 6 5 6 6 6 6 4 4 3 3 3 3 3 3 2 2 2 2
5 6 6 6 6 6 6 7 7 7 8 9 9 9 8 8 9 8 8 6 5 4 6 6 6 6 5 6 5 5 5 5 5 5 3 3 3 3 3 3 2 2 2
4 6 6 6 6 7 7 7 8 7 7 8 8 7 8 6 6 7 7 7 6 5 6 6 6 6 6 6 5 4 5 5 5 5 4 3 3 3 3 4 3 1 1
5 5 6 6 6 7 8 8 8 7 7 7 6 6 7 6 6 6 6 5 5 5 6 7 7 7 7 7 6 4 5 5 5 5 5 3 3 3 3 3 3 4 2
4 5 6 6 6 6 5 6 6 6 6 6 6 6 6 6 6 5 6 6 6 6 7 7 7 7 7 6 6 5 4 5 4 4 5 4 3 3 3 3 3 3 4
5 5 5 5 5 5 5 5 5 4 5 5 5 5 5 6 5 5 6 6 6 6 7 7 7 7 7 6 5 5 6 6 5 5 5 5 4 3 3 3 3 3 3
3 4 4 4 4 5 5 4 4 4 4 4 4 5 5 5 6 5 5 6 6 6 6 6 6 6 6 6 7 7 7 6 6 6 5 5 4 4 3 3 4 4 4
2 3 3 4 4 4 4 4 4 4 3 4 4 4 4 5 6 5 5 6 6 6 6 6 6 6 6 7 7 7 6 6 6 6 6 5 5 5 4 4 4 3 3
3 3 3 4 4 3 3 3 3 4 4 4 4 4 4 5 5 5 5 5 6 6 5 5 5 5 5 5 6 6 5 5 5 5 5 5 5 5 5 4 4 3 3
2 2 3 3 3 3 3 3 3 3 4 4 3 3 3 4 4 4 4 4 5 5 5 5 4 4 4 4 5 5 5 5 4 4 4 4 5 5 4 4 4 4 3
2 1 1 2 3 4 4 4 4 4 4 4 3 3 3 4 4 4 4 5 5 4 4 4 4 4 3 4 6 5 4 4 4 3 3 3 3 4 5 5 5 5 4
2 1 1 2 3 3 4 4 4 5 5 3 3 3 4 5 4 5 5 5 4 4 4 3 3 3 1 3 4 5 4 3 3 3 2 2 1 2 2 2 2 3 3
3 2 1 1 2 3 3 4 4 5 5 4 3 3 4 5 5 5 5 5 4 4 3 3 3 3 2 2 3 4 3 2 2 2 2 2 1 1 2 2 1 1 1
3 2 2 1 2 3 4 5 5 5 5 4 4 3 5 5 5 5 5 4 5 4 4 3 3 3 2 3 1 3 2 2 2 2 2 2 2 2 2 2 1 0 1
3 3 3 3 3 3 5 6 5 4 4 4 4 4 5 5 5 5 5 4 4 4 4 4 4 3 3 3 2 3 2 3 2 3 3 4 3 3 3 2 1 0 1
5 4 5 4 3 3 5 6 5 3 3 4 4 5 5 5 5 5 4 5 5 5 5 5 5 4 4 5 5 4 3 3 3 3 2 3 4 4 4 3 2 1 1
6 6 6 6 5 4 5 6 4 4 5 6 6 5 5 5 5 6 5 5 5 6 5 5 5 4 5 6 6 7 6 5 4 3 2 3 6 6 6 5 4 4 3
6 5 6 7 7 6 6 6 5 5 7 8 7 7 7 6 5 6 5 5 4 4 4 4 4 4 4 6 9 9 9 8 5 5 7 7 8 7 6 7 6 4 3
5 6 7 8 7 7 7 6 5 6 8 8 7 7 8 7 7 6 5 5 4 4 4 5 4 4 5 5 4 4 5 7 7 5 7 9 9 7 6 6 5 4 3
5 6 7 8 8 8 8 7 7 7 9 8 8 8 8 8 9 9 8 7 6 5 5 5 4 4 5 5 6 5 5 4 4 4 5 5 5 5 5 5 4 4 4
6 8 8 8 8 8 8 8 7 8 9 9 8 6 6 7 7 9 10 16 13 15 14 11 8 7 7 9 11 11 11 10 8 6 5 5 5 4 4 4 4 4 4
Wind_Direction
199 186 184 176 178 178 177 183 188 189 177 175 182 183 190 184 189 191 184 181 185 186 182 183 174 174 177 175 166 144 133 116 121 98 55 9 354 249 235 227 221 225 223
186 182 175 176 182 182 181 186 188 184 184 184 181 177 173 180 195 197 186 183 187 188 188 180 178 178 168 162 166 148 134 125 137 130 113 25 341 314 243 219 219 227 225
190 187 184 183 183 184 185 188 187 183 183 173 166 161 157 155 174 189 190 192 189 188 184 184 179 177 173 176 177 167 151 149 148 150 145 152 219 284 309 254 230 225 222
191 188 183 184 193 191 182 181 184 183 181 171 176 178 185 189 188 184 187 183 187 186 184 181 178 177 175 174 179 170 159 148 159 156 128 143 155 160 280 313 274 240 230
193 187 188 190 189 175 171 177 180 183 178 176 182 184 191 190 169 169 176 182 186 186 184 180 178 179 179 178 175 165 167 163 163 164 153 132 103 126 155 246 294 283 244
189 179 175 164 164 160 158 164 171 178 176 180 187 189 189 180 170 176 180 182 182 183 184 179 179 179 180 179 179 173 173 174 165 165 162 158 160 179 170 195 236 258 272
180 174 170 170 169 166 165 166 174 184 184 187 193 192 191 186 186 183 183 180 183 186 188 181 177 177 182 179 171 171 176 176 174 176 180 179 182 164 160 165 196 242 285
181 181 176 173 175 174 172 174 187 190 188 192 196 189 185 186 190 186 181 184 187 186 177 175 178 179 178 178 171 172 180 178 183 188 181 182 192 180 174 168 161 179 282
175 176 173 172 176 178 178 180 187 189 190 192 189 184 182 184 184 179 179 178 175 173 171 175 178 180 179 175 170 177 183 177 187 191 190 193 195 190 193 181 175 170 205
176 177 179 181 178 178 174 172 179 187 185 183 186 184 185 185 180 176 181 180 179 175 171 178 181 179 177 175 174 175 180 181 189 189 191 199 199 192 192 193 192 188 191
188 180 179 177 169 162 162 167 171 172 174 180 184 179 179 177 175 182 187 184 180 177 179 181 179 179 178 175 175 183 186 191 197 199 196 206 197 193 194 189 186 190 184
190 175 166 158 159 162 163 165 165 171 177 174 174 178 174 169 174 183 185 181 181 180 180 178 177 181 178 175 181 191 193 195 203 205 200 209 199 199 195 189 195 199 196
167 153 149 157 163 164 163 163 165 170 166 161 165 167 170 174 179 181 180 179 178 176 175 172 178 182 180 183 191 194 194 199 205 202 201 206 194 205 203 197 202 205 199
158 155 165 168 163 160 163 164 166 163 159 157 163 171 176 176 173 172 172 174 171 169 169 170 176 178 179 187 193 192 191 193 200 198 201 206 201 206 205 204 206 200 197
113 158 175 168 157 153 158 159 158 148 148 150 160 177 172 159 153 156 158 156 154 159 157 159 167 171 175 190 190 188 185 185 192 194 201 208 204 205 203 200 199 192 198
70 91 156 163 165 167 168 158 150 139 132 142 153 150 149 147 145 144 141 140 134 130 139 154 163 165 181 183 179 174 173 175 181 189 198 203 207 217 214 210 194 184 192
59 89 134 180 177 178 167 163 151 137 132 139 141 133 130 128 132 133 123 121 122 122 128 132 133 131 123 138 154 163 164 170 173 179 184 193 198 200 195 198 202 211 214
22 14 20 147 158 154 144 138 132 135 135 137 137 133 130 129 123 118 117 113 107 109 109 110 117 114 91 111 145 172 169 159 162 167 172 177 185 154 162 161 160 214 243
17 356 356 75 120 136 140 130 131 136 136 139 139 137 132 127 125 126 124 118 115 111 106 100 103 100 67 64 128 155 144 129 112 100 91 104 108 67 107 134 147 74 0
17 25 33 57 90 109 124 125 129 130 138 140 135 131 132 132 133 129 118 111 112 112 106 92 84 89 72 49 78 141 122 114 103 89 78 68 74 72 84 110 123 112 335
23 39 50 52 62 98 112 117 120 127 125 113 110 110 116 120 119 114 112 114 112 105 97 88 72 65 57 49 58 88 105 116 110 94 73 56 60 66 67 76 79 71 6
37 47 57 50 46 69 96 100 99 98 100 100 97 93 90 99 105 106 101 103 108 103 99 89 73 55 47 45 54 68 78 94 99 91 75 66 65 69 66 66 63 58 55
49 53 66 61 51 52 74 86 76 90 95 91 91 90 83 78 83 95 100 96 95 99 97 93 82 62 54 51 55 62 69 76 83 79 75 73 72 71 65 57 58 59 56
56 62 70 67 57 52 61 72 78 88 92 89 88 89 87 80 71 67 72 78 80 92 94 93 88 75 61 50 47 57 65 68 72 71 67 67 65 63 57 50 45 43 41
57 65 73 74 66 59 59 62 72 85 87 85 83 81 82 84 77 67 55 62 54 75 94 90 89 86 72 49 59 71 67 66 73 75 61 51 45 42 38 35 33 31 28
65 66 65 66 64 63 60 57 69 85 92 88 82 81 84 86 88 90 75 57 66 66 69 76 86 75 81 82 74 71 69 66 73 75 62 53 46 39 30 22 14 13 10